FW3706 Weather Reports


Display with metric or nautical units.
time (UTC)temp
F
wind
direction
speed
MPH
gust
MPH
rain 1hr
in
rain 24hr
in
rain mn
in
humidity
%
barometer
mb
20260507193029 88 344 0.0 8.0 0.00 0.00 0.00 12 1012.5
20260507192509 87 236 2.0 8.0 0.00 0.00 0.00 12 1012.6
20260507192007 87 281 4.0 7.0 0.00 0.00 0.00 13 1012.7
20260507191528 88 290 2.0 5.0 0.00 0.00 0.00 14 1012.7
20260507191007 86 230 1.0 6.0 0.00 0.00 0.00 14 1012.7
20260507190507 86 248 1.0 8.0 0.00 0.00 0.00 14 1012.8
20260507190027 86 269 4.0 8.0 0.00 0.00 0.00 15 1013.0
20260507185506 87 322 1.0 6.0 0.00 0.00 0.00 14 1013.1
20260507185005 87 281 1.0 6.0 0.00 0.00 0.00 15 1013.2
20260507184528 85 360 2.0 6.0 0.00 0.00 0.00 15 1013.3
20260507184008 85 10 2.0 6.0 0.00 0.00 0.00 15 1013.3
20260507183503 85 2 2.0 6.0 0.00 0.00 0.00 16 1013.4
20260507183028 84 12 1.0 6.0 0.00 0.00 0.00 16 1013.5
20260507182510 84 12 2.0 5.0 0.00 0.00 0.00 17 1013.5
20260507182011 84 32 0.0 5.0 0.00 0.00 0.00 17 1013.7
20260507181525 83 13 1.0 6.0 0.00 0.00 0.00 17 1013.9
20260507181009 83 52 2.0 6.0 0.00 0.00 0.00 18 1014.0
20260507180504 82 13 1.0 7.0 0.00 0.00 0.00 17 1014.1
20260507180010 82 34 2.0 7.0 0.00 0.00 0.00 18 1014.2
20260507175502 83 360 3.0 7.0 0.00 0.00 0.00 18 1014.2
20260507175004 82 29 0.0 5.0 0.00 0.00 0.00 19 1014.2
20260507174511 81 37 2.0 5.0 0.00 0.00 0.00 19 1014.2
20260507174004 81 40 1.0 5.0 0.00 0.00 0.00 19 1014.3
20260507173506 80 29 0.0 3.0 0.00 0.00 0.00 19 1014.4
20260507173024 81 23 0.0 3.0 0.00 0.00 0.00 19 1014.4
20260507172504 80 8 0.0 4.0 0.00 0.00 0.00 19 1014.5
20260507172003 80 21 1.0 4.0 0.00 0.00 0.00 19 1014.5
20260507171513 80 13 1.0 4.0 0.00 0.00 0.00 19 1014.5
20260507171005 80 181 0.0 2.0 0.00 0.00 0.00 20 1014.5
20260507170504 79 168 0.0 3.0 0.00 0.00 0.00 20 1014.5
20260507170008 79 105 0.0 3.0 0.00 0.00 0.00 21 1014.6
20260507165501 78 360 0.0 3.0 0.00 0.00 0.00 21 1014.7
20260507165004 77 167 1.0 4.0 0.00 0.00 0.00 22 1014.7
20260507164508 77 360 1.0 4.0 0.00 0.00 0.00 21 1014.7
20260507164001 76 167 1.0 4.0 0.00 0.00 0.00 22 1014.7
20260507163505 76 176 2.0 4.0 0.00 0.00 0.00 23 1014.8
20260507163008 76 360 0.0 3.0 0.00 0.00 0.00 23 1014.9
20260507162502 75 360 1.0 3.0 0.00 0.00 0.00 24 1014.9
20260507162006 74 360 0.0 5.0 0.00 0.00 0.00 24 1014.9
20260507161519 74 360 1.0 5.0 0.00 0.00 0.00 25 1015.0
20260507161001 74 360 1.0 4.0 0.00 0.00 0.00 24 1015.1
20260507160508 74 360 2.0 4.0 0.00 0.00 0.00 24 1015.1
20260507160010 73 360 0.0 4.0 0.00 0.00 0.00 25 1015.1
20260507155501 73 134 0.0 4.0 0.00 0.00 0.00 25 1015.1
20260507155004 72 8 1.0 4.0 0.00 0.00 0.00 26 1015.2
20260507154510 72 93 1.0 3.0 0.00 0.00 0.00 26 1015.2
20260507154001 71 360 0.0 4.0 0.00 0.00 0.00 28 1015.3
20260507153506 71 360 1.0 4.0 0.00 0.00 0.00 28 1015.3
20260507153011 70 360 1.0 4.0 0.00 0.00 0.00 29 1015.3
20260507152501 70 130 1.0 4.0 0.00 0.00 0.00 28 1015.3
20260507152005 70 360 2.0 4.0 0.00 0.00 0.00 29 1015.4
20260507151508 69 129 1.0 4.0 0.00 0.00 0.00 31 1015.4
20260507151001 68 360 2.0 4.0 0.00 0.00 0.00 32 1015.4
20260507150514 67 124 0.0 4.0 0.00 0.00 0.00 34 1015.5
20260507150010 67 121 2.0 4.0 0.00 0.00 0.00 35 1015.5
20260507145504 66 11 1.0 4.0 0.00 0.00 0.00 36 1015.5
20260507145004 66 360 1.0 4.0 0.00 0.00 0.00 37 1015.5
20260507144513 65 12 2.0 5.0 0.00 0.00 0.00 37 1015.5
20260507144005 65 11 3.0 5.0 0.00 0.00 0.00 37 1015.5
20260507143505 64 360 1.0 5.0 0.00 0.00 0.00 38 1015.6
20260507143009 64 11 1.0 5.0 0.00 0.00 0.00 38 1015.6
20260507142505 63 360 1.0 5.0 0.00 0.00 0.00 38 1015.5
20260507142010 63 360 2.0 5.0 0.00 0.00 0.00 39 1015.5
20260507141509 62 360 0.0 5.0 0.00 0.00 0.00 40 1015.5
20260507141006 62 360 2.0 5.0 0.00 0.00 0.00 40 1015.4
20260507140506 62 11 2.0 5.0 0.00 0.00 0.00 41 1015.5
20260507140009 61 360 1.0 6.0 0.00 0.00 0.00 42 1015.5
20260507135504 61 11 2.0 6.0 0.00 0.00 0.00 41 1015.5
20260507135004 61 360 0.0 4.0 0.00 0.00 0.00 42 1015.5
20260507134508 61 360 0.0 4.0 0.00 0.00 0.00 43 1015.5
20260507134007 60 360 1.0 4.0 0.00 0.00 0.00 43 1015.5
20260507133504 60 360 0.0 4.0 0.00 0.00 0.00 44 1015.4
20260507133010 59 360 1.0 5.0 0.00 0.00 0.00 44 1015.4
20260507132506 59 360 1.0 5.0 0.00 0.00 0.00 44 1015.4
20260507132005 58 360 1.0 4.0 0.00 0.00 0.00 45 1015.3
20260507131508 58 6 2.0 4.0 0.00 0.00 0.00 46 1015.3
20260507131009 57 7 2.0 4.0 0.00 0.00 0.00 47 1015.2
20260507130510 56 7 0.0 3.0 0.00 0.00 0.00 48 1015.1
20260507130010 56 8 0.0 2.0 0.00 0.00 0.00 48 1015.1
20260507125508 56 10 0.0 2.0 0.00 0.00 0.00 47 1015.0
20260507125004 56 11 0.0 0.0 0.00 0.00 0.00 46 1015.0
20260507124510 57 10 0.0 1.0 0.00 0.00 0.00 45 1014.9
20260507124009 57 11 0.0 1.0 0.00 0.00 0.00 45 1014.9
20260507123508 57 9 0.0 1.0 0.00 0.00 0.00 45 1014.9
20260507123011 57 11 0.0 2.0 0.00 0.00 0.00 45 1014.9
20260507122509 57 8 0.0 2.0 0.00 0.00 0.00 46 1014.8
20260507122008 57 11 0.0 3.0 0.00 0.00 0.00 46 1014.9
20260507121510 57 8 0.0 3.0 0.00 0.00 0.00 46 1014.9
20260507121007 57 360 0.0 1.0 0.00 0.00 0.00 46 1014.9
20260507120508 58 360 0.0 4.0 0.00 0.00 0.00 46 1014.9
20260507120010 58 11 1.0 5.0 0.00 0.00 0.00 46 1014.9
20260507115508 58 360 1.0 5.0 0.00 0.00 0.00 46 1015.0
20260507115015 57 360 2.0 5.0 0.00 0.00 0.00 46 1015.1
20260507114512 57 360 1.0 5.0 0.00 0.00 0.00 47 1015.1
20260507114008 57 360 1.0 5.0 0.00 0.00 0.00 47 1015.0
20260507113504 57 360 3.0 6.0 0.00 0.00 0.00 47 1015.0
20260507113014 57 360 1.0 6.0 0.00 0.00 0.00 47 1015.0
20260507112513 57 11 2.0 6.0 0.00 0.00 0.00 48 1015.0
20260507112008 56 10 1.0 4.0 0.00 0.00 0.00 50 1015.0
20260507111517 56 7 0.0 4.0 0.00 0.00 0.00 50 1015.0
20260507111008 56 9 0.0 3.0 0.00 0.00 0.00 51 1015.0
20260507110508 56 9 0.0 3.0 0.00 0.00 0.00 52 1015.0
20260507110011 56 8 0.0 2.0 0.00 0.00 0.00 53 1014.9
20260507105507 56 7 0.0 2.0 0.00 0.00 0.00 52 1014.9
20260507105004 56 8 0.0 0.0 0.00 0.00 0.00 52 1014.9
20260507104510 56 7 0.0 0.0 0.00 0.00 0.00 51 1014.8
20260507104012 56 360 0.0 0.0 0.00 0.00 0.00 51 1014.7
20260507103508 57 11 0.0 0.0 0.00 0.00 0.00 51 1014.7
20260507103008 57 8 0.0 0.0 0.00 0.00 0.00 50 1014.7
20260507102507 57 8 0.0 0.0 0.00 0.00 0.00 49 1014.7
20260507102007 57 9 0.0 0.0 0.00 0.00 0.00 49 1014.9
20260507101524 58 7 0.0 0.0 0.00 0.00 0.00 47 1014.9
20260507101009 58 8 0.0 0.0 0.00 0.00 0.00 46 1014.9
20260507100506 58 8 0.0 0.0 0.00 0.00 0.00 46 1014.9
20260507100021 59 7 0.0 0.0 0.00 0.00 0.00 45 1015.0
20260507095508 59 9 0.0 0.0 0.00 0.00 0.00 45 1014.9
20260507095010 59 360 0.0 0.0 0.00 0.00 0.00 45 1015.0
20260507094529 59 9 0.0 0.0 0.00 0.00 0.00 45 1015.0
20260507094007 59 10 0.0 0.0 0.00 0.00 0.00 44 1015.0
20260507093503 59 9 0.0 0.0 0.00 0.00 0.00 44 1015.0
20260507093032 60 7 0.0 0.0 0.00 0.00 0.00 44 1015.0
20260507092508 60 8 0.0 2.0 0.00 0.00 0.00 43 1015.0
20260507092010 60 6 0.0 2.0 0.00 0.00 0.00 43 1015.1
20260507091528 60 6 0.0 1.0 0.00 0.00 0.00 44 1015.1
20260507091014 60 11 0.0 1.0 0.00 0.00 0.00 44 1015.2
20260507090507 60 8 0.0 1.0 0.00 0.00 0.00 44 1015.2
20260507090016 60 360 0.0 0.0 0.00 0.00 0.00 44 1015.3
20260507085505 60 9 0.0 2.0 0.00 0.00 0.00 43 1015.2
20260507085006 60 10 0.0 2.0 0.00 0.00 0.00 42 1015.2
20260507084507 61 9 0.0 1.0 0.00 0.00 0.00 41 1015.2
20260507084009 61 9 0.0 1.0 0.00 0.00 0.00 40 1015.2
20260507083507 61 11 0.0 0.0 0.00 0.00 0.00 39 1015.2
20260507083010 62 11 0.0 0.0 0.00 0.00 0.00 39 1015.2
20260507082508 62 8 0.0 0.0 0.00 0.00 0.00 38 1015.2
20260507082005 62 6 0.0 0.0 0.00 0.00 0.00 37 1015.3
20260507081519 63 8 0.0 0.0 0.00 0.00 0.00 37 1015.3
20260507081007 63 360 0.0 0.0 0.00 0.00 0.00 36 1015.3
20260507080506 63 7 0.0 0.0 0.00 0.00 0.00 36 1015.3
20260507080010 64 360 0.0 0.0 0.00 0.00 0.00 36 1015.3
20260507075509 64 6 0.0 4.0 0.00 0.00 0.00 35 1015.3
20260507075009 64 8 0.0 4.0 0.00 0.00 0.00 35 1015.2
20260507074508 64 7 0.0 3.0 0.00 0.00 0.00 35 1015.2
20260507074010 64 360 0.0 3.0 0.00 0.00 0.00 35 1015.2
20260507073506 64 360 0.0 2.0 0.00 0.00 0.00 35 1015.2
20260507073009 64 360 0.0 0.0 0.00 0.00 0.00 34 1015.3
20260507072507 65 360 0.0 0.0 0.00 0.00 0.00 33 1015.3
20260507072008 65 360 0.0 0.0 0.00 0.00 0.00 33 1015.3
20260507071510 65 360 0.0 0.0 0.00 0.00 0.00 33 1015.3
20260507071008 65 360 0.0 3.0 0.00 0.00 0.00 33 1015.2
20260507070506 66 360 0.0 5.0 0.00 0.00 0.00 32 1015.2
20260507070012 66 360 1.0 7.0 0.00 0.00 0.00 32 1015.2
20260507065507 67 360 1.0 7.0 0.00 0.00 0.00 31 1015.2
20260507065004 67 360 3.0 7.0 0.00 0.00 0.00 29 1015.3
20260507064506 68 360 2.0 5.0 0.00 0.00 0.00 28 1015.3
20260507064010 68 360 1.0 5.0 0.00 0.00 0.00 28 1015.3
20260507063505 68 360 1.0 5.0 0.00 0.00 0.00 28 1015.2
20260507063013 68 360 2.0 5.0 0.00 0.00 0.00 27 1015.1
20260507062508 68 360 0.0 5.0 0.00 0.00 0.00 28 1015.1
20260507062006 68 360 2.0 5.0 0.00 0.00 0.00 28 1015.1
20260507061511 68 11 0.0 5.0 0.00 0.00 0.00 28 1015.1
20260507061007 68 360 1.0 5.0 0.00 0.00 0.00 27 1015.1
20260507060503 68 360 1.0 5.0 0.00 0.00 0.00 27 1015.0
20260507060009 68 360 2.0 5.0 0.00 0.00 0.00 27 1015.0
20260507055512 68 360 2.0 5.0 0.00 0.00 0.00 27 1015.0
20260507055004 69 360 2.0 5.0 0.00 0.00 0.00 26 1015.0
20260507054511 69 360 1.0 5.0 0.00 0.00 0.00 26 1015.1
20260507054010 70 360 2.0 6.0 0.00 0.00 0.00 25 1015.0
20260507053506 70 360 2.0 7.0 0.00 0.00 0.00 25 1015.0
20260507053010 70 360 2.0 7.0 0.00 0.00 0.00 25 1015.0
20260507052509 70 360 1.0 6.0 0.00 0.00 0.00 24 1015.0
20260507052010 71 360 2.0 6.0 0.00 0.00 0.00 24 1015.0
20260507051526 71 360 2.0 7.0 0.00 0.00 0.00 24 1014.9
20260507051002 71 10 2.0 7.0 0.00 0.00 0.00 24 1015.0
20260507050505 71 360 3.0 8.0 0.00 0.00 0.00 24 1014.9
20260507050009 71 360 3.0 8.0 0.00 0.00 0.00 24 1014.9
20260507045507 71 360 4.0 9.0 0.00 0.00 0.00 23 1014.9
20260507045004 71 360 2.0 9.0 0.00 0.00 0.00 23 1014.8
20260507044529 71 360 3.0 9.0 0.00 0.00 0.00 23 1014.9
20260507044008 71 360 5.0 11.0 0.00 0.00 0.00 23 1014.8
20260507043504 71 360 3.0 11.0 0.00 0.00 0.00 23 1014.8
20260507043008 70 360 4.0 9.0 0.00 0.00 0.00 24 1014.8
20260507042510 70 360 2.0 8.0 0.00 0.00 0.00 24 1014.7
20260507042006 70 360 1.0 8.0 0.00 0.00 0.00 24 1014.7
20260507041510 70 360 4.0 8.0 0.00 0.00 0.00 24 1014.9
20260507041008 70 10 3.0 7.0 0.00 0.00 0.00 24 1014.7
20260507040506 70 10 3.0 7.0 0.00 0.00 0.00 23 1014.6
20260507040008 70 10 3.0 7.0 0.00 0.00 0.00 23 1014.5
20260507035507 71 11 1.0 7.0 0.00 0.00 0.00 23 1014.5
20260507035004 71 11 3.0 7.0 0.00 0.00 0.00 23 1014.5
20260507034509 71 11 3.0 7.0 0.00 0.00 0.00 23 1014.4
20260507034009 71 11 1.0 6.0 0.00 0.00 0.00 23 1014.4
20260507033508 71 360 2.0 6.0 0.00 0.00 0.00 23 1014.4
20260507033006 71 11 0.0 6.0 0.00 0.00 0.00 24 1014.3
20260507032509 72 10 1.0 6.0 0.00 0.00 0.00 23 1014.2
20260507032008 72 360 0.0 5.0 0.00 0.00 0.00 23 1014.1
20260507031509 72 360 2.0 6.0 0.00 0.00 0.00 22 1014.1
20260507031010 72 360 3.0 6.0 0.00 0.00 0.00 22 1014.0
20260507030511 73 360 3.0 6.0 0.00 0.00 0.00 21 1014.0
20260507030007 73 360 2.0 6.0 0.00 0.00 0.00 21 1013.9
20260507025507 73 360 2.0 6.0 0.00 0.00 0.00 21 1013.8
20260507025003 73 360 1.0 6.0 0.00 0.00 0.00 21 1013.8
20260507024507 74 360 3.0 6.0 0.00 0.00 0.00 20 1013.7
20260507024009 74 360 2.0 6.0 0.00 0.00 0.00 20 1013.7
20260507023504 74 360 2.0 6.0 0.00 0.00 0.00 20 1013.8
20260507023006 74 360 2.0 10.0 0.00 0.00 0.00 20 1013.7
20260507022507 74 360 3.0 10.0 0.00 0.00 0.00 19 1013.6
20260507022006 75 360 2.0 10.0 0.00 0.00 0.00 19 1013.5
20260507021516 75 360 4.0 10.0 0.00 0.00 0.00 19 1013.5
20260507021014 75 360 2.0 8.0 0.00 0.00 0.00 19 1013.4
20260507020505 76 360 2.0 8.0 0.00 0.00 0.00 19 1013.4
20260507020010 76 360 3.0 9.0 0.00 0.00 0.00 19 1013.5
20260507015508 76 360 2.0 9.0 0.00 0.00 0.00 18 1013.4
20260507015007 77 360 5.0 9.0 0.00 0.00 0.00 18 1013.4
20260507014510 77 360 3.0 9.0 0.00 0.00 0.00 19 1013.4
20260507014007 77 360 3.0 11.0 0.00 0.00 0.00 19 1013.4
20260507013507 77 360 5.0 11.0 0.00 0.00 0.00 19 1013.4
20260507013006 77 360 5.0 11.0 0.00 0.00 0.00 18 1013.4
20260507012508 77 360 5.0 10.0 0.00 0.00 0.00 18 1013.4
20260507012008 78 360 5.0 10.0 0.00 0.00 0.00 19 1013.4
20260507011506 78 360 4.0 9.0 0.00 0.00 0.00 19 1013.3
20260507011010 78 360 4.0 10.0 0.00 0.00 0.00 19 1013.4
20260507010507 79 8 5.0 10.0 0.00 0.00 0.00 18 1013.3
20260507010008 79 8 3.0 9.0 0.00 0.00 0.00 19 1013.4
20260507005508 79 8 4.0 8.0 0.00 0.00 0.00 19 1013.3
20260507005006 79 8 5.0 9.0 0.00 0.00 0.00 18 1013.3
20260507004509 79 9 4.0 12.0 0.00 0.00 0.00 19 1013.4
20260507004010 80 360 6.0 12.0 0.00 0.00 0.00 18 1013.4
20260507003508 80 360 3.0 10.0 0.00 0.00 0.00 19 1013.4
20260507003010 80 360 3.0 10.0 0.00 0.00 0.00 19 1013.4
20260507002507 81 275 4.0 10.0 0.00 0.00 0.00 19 1013.3
20260507002005 81 302 4.0 8.0 0.00 0.00 0.00 19 1013.3
20260507001518 81 360 2.0 10.0 0.00 0.00 0.00 19 1013.3
20260507001006 80 360 4.0 11.0 0.00 0.00 0.00 19 1013.4
20260507000506 80 360 5.0 11.0 0.00 0.00 0.00 19 1013.4
20260507000012 81 5 3.0 10.0 0.00 0.00 0.00 19 1013.4
20260506235507 80 360 4.0 10.0 0.00 0.00 0.00 19 1013.4
20260506235004 80 360 3.0 12.0 0.00 0.00 0.00 19 1013.4
20260506234510 80 360 3.0 12.0 0.00 0.00 0.00 19 1013.4
20260506234012 80 311 2.0 11.0 0.00 0.00 0.00 20 1013.3
20260506233506 81 281 3.0 11.0 0.00 0.00 0.00 19 1013.3
20260506233026 81 279 2.0 10.0 0.00 0.00 0.00 20 1013.3
20260506232508 82 288 2.0 9.0 0.00 0.00 0.00 19 1013.4
20260506232006 81 319 2.0 9.0 0.00 0.00 0.00 20 1013.5
20260506231529 80 255 2.0 12.0 0.00 0.00 0.00 19 1013.5
20260506231007 81 246 4.0 12.0 0.00 0.00 0.00 19 1013.7
20260506230505 81 309 1.0 7.0 0.00 0.00 0.00 18 1013.7
20260506230025 81 274 1.0 9.0 0.00 0.00 0.00 19 1013.8
20260506225507 80 8 3.0 9.0 0.00 0.00 0.00 18 1013.8
20260506225005 80 8 5.0 9.0 0.00 0.00 0.00 19 1013.9
20260506224524 81 15 3.0 12.0 0.00 0.00 0.00 19 1013.7
20260506224007 81 13 4.0 12.0 0.00 0.00 0.00 20 1013.8
20260506223505 80 11 3.0 11.0 0.00 0.00 0.00 20 1013.8
20260506223006 80 360 4.0 11.0 0.00 0.00 0.00 20 1013.8
20260506222513 81 360 2.0 9.0 0.00 0.00 0.00 20 1013.8
20260506222008 81 46 1.0 8.0 0.00 0.00 0.00 19 1013.8
20260506221508 80 79 4.0 10.0 0.00 0.00 0.00 20 1013.9
20260506221008 79 70 3.0 10.0 0.00 0.00 0.00 21 1013.9
20260506220504 79 75 6.0 10.0 0.00 0.00 0.00 22 1013.9
20260506220010 80 113 5.0 8.0 0.00 0.00 0.00 21 1014.0
20260506215508 80 19 2.0 10.0 0.00 0.00 0.00 22 1014.1
20260506215009 78 9 4.0 10.0 0.00 0.00 0.00 22 1014.2
20260506214508 79 18 5.0 10.0 0.00 0.00 0.00 22 1014.3
20260506214012 79 8 4.0 9.0 0.00 0.00 0.00 22 1014.3
20260506213505 80 11 4.0 9.0 0.00 0.00 0.00 22 1014.4
20260506213010 81 10 3.0 10.0 0.00 0.00 0.00 22 1014.4
20260506212508 80 9 4.0 10.0 0.00 0.00 0.00 23 1014.5
20260506212008 79 7 1.0 12.0 0.00 0.00 0.00 23 1014.6
20260506211508 79 8 5.0 12.0 0.00 0.00 0.00 23 1014.7
20260506211009 80 360 1.0 6.0 0.00 0.00 0.00 23 1014.7
20260506210505 78 360 1.0 10.0 0.00 0.00 0.00 24 1014.8
20260506210010 78 360 2.0 10.0 0.00 0.00 0.00 25 1014.9
20260506205511 76 360 1.0 11.0 0.00 0.00 0.00 24 1015.0
20260506205010 76 360 6.0 11.0 0.00 0.00 0.00 25 1015.0
20260506204508 76 360 2.0 7.0 0.00 0.00 0.00 25 1015.0
20260506204008 78 360 3.0 11.0 0.00 0.00 0.00 23 1015.1
20260506203503 78 360 4.0 11.0 0.00 0.00 0.00 24 1015.1
20260506203009 78 360 4.0 9.0 0.00 0.00 0.00 24 1015.1
20260506202507 78 360 5.0 9.0 0.00 0.00 0.00 24 1015.1
20260506202011 78 360 4.0 9.0 0.00 0.00 0.00 24 1015.2
20260506201509 77 360 2.0 7.0 0.00 0.00 0.00 27 1015.2
20260506201007 77 360 3.0 7.0 0.00 0.00 0.00 27 1015.3
20260506200510 77 360 1.0 6.0 0.00 0.00 0.00 26 1015.4
20260506200008 76 360 3.0 7.0 0.00 0.00 0.00 27 1015.4
20260506195508 76 360 0.0 7.0 0.00 0.00 0.00 28 1015.5
20260506195004 76 360 2.0 10.0 0.00 0.00 0.00 28 1015.5
20260506194508 76 360 3.0 10.0 0.00 0.00 0.00 28 1015.6
20260506194007 76 360 3.0 8.0 0.00 0.00 0.00 28 1015.6
20260506193505 76 360 1.0 9.0 0.00 0.00 0.00 28 1015.8